Find Tianlu-1

NORAD ID: 62725 Int'l Des: NNA 2025-012 Owner: JHQJ/YINHE Country: CN operational
LEOCIRCULARRETROGRADESSO

实时位置

正在加载3D地球...

关于 Tianlu-1

正在加载描述...

即将过境

Passes for default location (London). Set your location on the main map for personalized predictions.

高度历史

Loading altitude history...

两行轨道根数

1 62725U 25012A 26107.27007103 .00004332 00000-0 21859-3 0 9998
2 62725 97.4251 180.9111 0008136 107.1883 253.0242 15.17616402 68958
Epoch: Apr 17, 2026 • Age: 10 hours

当前状态

高度 519.3 km
速度 7.61 km/s
星下点 60.11°N, 78.82°E
发射日期 Jan 17, 2025
运行时间 1.2 years
类型 other

技术详情

分类 Payload
质量 100.00 kg
干质量 100.00 kg
总质量 100.00 kg
长度 0.70 m
直径 1.00 m
跨度 2.00 m
形状 Box + 2 Pan
制造商 YINHE
平台类型 Tianlu
阶段状态 In Orbit
所有者/国家 JHQJ/YINHE/CN

Most Searched